SCP
0 0 0 0 0 0 0 0 0 0 0 0 0 0 0 0 0 0 0 0 0 0 0 0 0 1 0 0 0 1 1 1 1 1 1 1 1 1 1 1 1 1 1
0 0 0 0 0 0 0 -0 0 0 0 0 0 0 0 0 0 0 0 0 0 0 0 0 0 1 1 0 0 1 1 1 1 1 1 1 1 1 1 1 1 1 1
0 0 0 0 0 0 -0 -0 0 0 0 0 0 0 0 0 0 0 0 0 0 0 0 0 0 0 0 0 0 0 1 1 0 0 0 1 1 1 1 1 1 1 1
0 0 0 0 0 0 -0 0 0 0 0 0 0 0 0 0 0 0 0 0 0 -0 0 0 0 0 0 0 0 0 0 1 0 1 1 0 0 1 1 1 1 1 1
0 0 0 0 0 0 -0 0 0 0 0 0 0 0 0 0 0 0 0 0 0 -0 0 0 0 0 0 0 0 0 0 0 0 0 1 0 0 0 0 0 0 0 1
0 0 0 0 0 0 -0 0 0 0 0 0 0 0 0 0 0 0 0 0 0 0 0 0 0 0 0 -0 0 0 0 0 0 0 0 1 0 0 0 0 0 0 0
0 0 0 0 0 0 -0 0 0 0 0 0 0 0 0 0 0 0 0 0 0 0 0 0 0 0 0 -0 0 0 0 0 0 0 0 0 0 0 0 0 0 0 0
0 0 0 0 0 0 0 0 0 0 0 0 0 0 0 0 0 0 0 0 0 0 0 0 0 0 0 0 0 0 0 0 0 0 0 0 0 0 0 0 0 0 0
0 0 0 0 0 0 0 0 0 0 0 0 0 0 0 0 0 0 0 0 0 0 0 0 0 0 0 0 0 0 0 0 0 0 0 0 0 0 0 0 0 0 0
0 0 0 0 0 0 0 0 0 0 0 0 0 0 0 0 0 0 0 0 0 0 0 0 0 0 0 0 0 0 -0 -0 -0 -0 0 0 0 0 0 0 0 0 0
0 0 0 0 0 0 0 0 0 0 0 0 0 0 0 0 0 0 0 0 0 0 0 0 0 0 0 0 0 0 0 0 0 0 0 0 0 0 0 0 0 0 0
0 0 0 0 0 0 0 0 0 0 0 0 0 0 0 0 0 0 0 0 0 0 0 0 0 0 0 0 0 0 0 0 0 0 0 0 0 0 0 0 0 0 0
0 0 0 0 0 0 0 0 0 0 0 0 0 0 0 0 0 0 0 0 0 0 0 0 0 0 0 0 0 0 0 0 0 -0 0 0 0 0 0 0 0 0 0
0 0 0 0 0 0 0 0 0 0 0 0 0 0 0 0 0 0 0 0 0 0 0 0 0 0 0 0 0 0 0 0 -0 -0 0 0 0 0 0 0 0 0 0
0 0 0 0 0 0 0 0 0 0 0 0 0 0 0 0 0 0 0 0 0 0 0 0 0 0 0 0 0 0 0 0 0 -0 -0 0 -0 -0 0 0 0 0 0
0 0 0 0 0 0 0 0 0 0 0 0 0 0 0 0 0 0 0 0 0 0 0 0 0 0 0 0 0 -0 0 0 -0 -0 -0 -0 0 -0 0 0 0 0 0
0 0 0 0 0 0 0 0 0 0 0 0 0 0 0 0 0 0 0 0 0 0 0 0 0 0 0 0 0 -0 0 0 -0 -0 0 -0 -0 -0 -0 0 0 0 0
0 0 0 0 0 0 0 0 0 0 0 0 0 0 0 0 0 0 0 0 0 0 0 0 0 0 0 0 0 0 -0 -0 -0 0 0 -0 -0 -0 -0 -0 -0 -0 -0
0 0 0 0 0 0 0 0 0 0 0 0 0 0 0 0 0 0 0 0 0 0 0 0 0 0 0 0 0 0 0 0 -0 -0 0 -0 -0 -0 0 0 0 0 0
0 0 0 0 0 0 0 0 0 0 0 0 0 0 0 0 0 0 0 0 0 0 0 0 0 0 0 0 0 0 0 0 0 0 0 0 0 0 0 0 0 0 0
0 0 0 0 0 0 0 0 0 0 0 0 0 0 0 0 0 0 0 0 0 0 0 0 0 0 0 0 0 0 0 0 0 0 0 0 0 0 0 0 0 0 0
0 0 0 0 0 0 0 0 0 0 0 0 0 0 0 0 0 0 0 0 0 0 0 0 0 0 0 0 0 0 0 0 0 0 0 0 0 0 0 0 0 0 0
0 0 0 0 0 0 0 0 0 0 0 0 0 0 0 0 0 0 0 0 0 0 0 0 0 0 0 0 0 0 0 0 0 0 0 0 0 0 0 0 0 0 0
0 0 0 0 0 0 0 0 0 0 0 0 0 0 0 0 0 0 0 0 0 0 0 0 0 0 0 0 0 0 0 0 0 0 0 0 0 0 0 0 0 -0 -0
0 0 0 0 0 0 0 0 0 0 0 0 0 0 0 0 -0 0 0 0 0 0 0 0 0 0 0 0 0 0 0 0 0 0 0 0 0 0 0 0 0 -0 -0
0 0 0 0 0 0 0 0 0 0 0 0 0 0 0 0 0 -0 0 0 0 0 0 0 0 0 0 0 0 0 0 0 0 0 0 0 0 0 0 0 0 0 0
Wind_Speed_500mb
25 22 26 36 23 24 26 30 36 23 21 18 21 25 26 30 24 36 27 23 30 32 31 30 33 31 33 40 41 39 38 42 43 43 39 36 40 39 36 34 31 31 31
21 21 27 26 25 26 30 40 42 23 12 16 20 23 23 24 26 25 27 25 24 28 33 35 34 33 33 37 38 38 39 36 37 42 43 42 42 43 39 36 34 30 29
20 21 28 24 25 29 39 37 32 11 12 14 16 15 12 22 16 19 14 21 27 35 39 37 31 26 24 32 37 45 40 46 52 43 44 43 43 43 42 38 36 34 29
25 17 26 28 20 28 38 45 38 19 12 24 25 15 11 19 0 4 21 26 27 40 34 27 24 27 27 29 31 39 50 50 44 38 38 40 42 44 46 42 36 33 31
32 23 20 30 17 25 37 52 36 20 22 29 33 10 12 5 13 17 21 21 29 37 32 24 25 27 29 28 34 27 24 38 53 56 42 39 40 41 40 39 39 35 32
33 33 29 34 14 32 42 56 35 13 25 34 30 12 11 4 16 20 17 16 27 37 36 28 28 26 25 27 22 48 50 59 37 35 57 44 41 34 32 32 33 35 34
36 37 33 31 19 34 45 45 36 33 29 31 28 16 11 5 16 22 26 20 22 28 30 28 25 24 21 19 15 15 20 29 51 9 10 56 42 33 29 27 27 28 33
39 43 39 32 29 32 47 44 39 37 35 33 38 26 21 9 24 27 30 34 36 29 26 24 23 25 17 14 2 8 12 11 25 35 42 13 55 48 34 25 25 26 29
33 39 43 28 30 32 42 45 46 41 40 37 27 26 15 16 50 23 36 32 33 35 24 23 19 19 16 12 5 6 10 13 12 6 18 19 24 39 34 28 17 20 24
25 32 42 29 30 30 35 36 45 37 32 33 33 18 18 25 29 35 46 34 29 34 22 20 20 22 17 10 8 8 7 13 12 7 8 5 10 14 10 23 21 16 19
18 28 39 29 26 34 28 32 37 47 34 27 29 26 18 22 28 35 47 51 36 25 20 16 16 17 15 11 7 9 11 15 16 9 13 10 6 8 11 16 18 17 22
19 29 37 26 23 24 28 28 26 33 38 30 28 27 27 27 29 36 42 44 44 36 18 16 16 13 9 5 7 9 12 15 17 21 23 21 22 23 26 26 26 26 30
17 31 33 31 22 19 25 22 21 25 32 33 36 30 30 23 23 29 35 42 44 35 28 16 16 16 12 11 9 13 15 22 18 20 21 22 23 28 27 27 30 30 30
12 21 30 29 27 16 21 27 28 21 28 29 29 31 32 24 24 19 28 34 42 36 31 19 23 14 18 14 13 19 24 19 17 17 10 11 15 17 22 25 30 32 31
18 21 19 25 29 20 20 24 26 27 27 27 26 26 29 32 23 19 25 21 22 30 36 24 23 21 17 19 18 22 25 23 19 16 12 12 13 13 15 17 25 29 31
25 17 17 20 24 21 25 26 27 26 27 32 28 26 30 33 29 24 22 20 19 22 24 33 25 20 15 17 23 25 24 20 18 18 20 22 22 22 23 25 25 27 31
26 23 20 19 22 25 23 28 28 28 30 33 32 29 32 32 33 29 27 20 18 19 26 25 24 24 24 22 20 19 22 21 15 17 15 17 13 15 16 18 22 25 24
30 26 27 25 23 25 28 31 35 35 34 36 37 38 44 35 37 33 32 26 24 23 25 31 29 25 28 27 26 24 22 16 17 18 17 14 20 20 21 18 19 18 22
32 24 27 29 29 30 28 29 34 38 40 43 44 51 49 44 39 38 40 35 32 30 23 29 28 24 27 25 25 26 26 25 18 16 21 17 21 19 17 20 23 25 22
31 27 28 31 34 36 37 38 41 41 41 46 52 53 48 45 41 37 38 36 39 37 30 29 30 26 22 21 25 18 21 18 22 23 26 31 27 26 26 28 31 32 33
31 30 33 36 41 45 45 43 43 45 48 52 53 56 56 49 41 41 42 43 42 41 34 29 27 27 29 30 21 23 26 26 27 28 28 22 24 27 28 32 36 37 40
39 40 43 45 49 51 51 50 49 52 54 59 62 61 58 50 39 39 40 41 39 39 37 35 30 28 28 30 29 29 30 34 32 23 29 28 28 33 32 30 38 41 46
46 49 53 57 61 65 63 60 57 56 59 63 66 70 63 52 42 42 37 41 42 40 39 36 39 35 30 24 23 30 29 31 36 34 34 34 20 27 29 35 41 39 50
52 57 61 66 72 75 75 74 70 65 62 77 76 75 68 55 45 45 42 37 38 35 34 36 38 34 32 29 28 28 31 38 40 37 25 33 22 20 27 35 36 42 58
57 61 64 73 77 75 74 75 81 72 65 72 72 63 61 55 45 52 57 49 35 36 33 36 38 35 34 31 34 34 37 38 42 35 21 22 23 28 31 36 29 44 46
68 67 64 60 85 62 62 63 64 65 66 63 54 43 50 22 26 35 44 40 41 40 29 34 37 40 43 40 36 39 35 37 40 40 15 22 29 32 32 24 29 43 38
Wind_Direction_500mb
48 35 16 -0 43 11 2 340 334 339 355 360 353 338 336 338 336 339 344 333 324 308 312 313 296 285 264 259 254 244 249 254 256 252 244 238 238 234 232 233 232 230 229
41 35 16 19 21 348 352 338 331 309 337 348 359 333 316 337 327 353 335 329 331 315 319 320 302 292 280 264 249 239 234 241 251 250 243 237 236 233 231 230 230 227 225
46 24 12 17 16 350 344 347 352 311 268 323 332 334 317 328 315 330 325 333 322 319 314 311 314 316 302 282 263 250 248 239 242 250 244 238 234 232 228 230 229 224 218
28 14 9 12 4 352 343 349 354 1 347 338 329 308 351 40 157 17 329 337 344 339 328 311 314 317 319 292 273 259 249 236 231 227 238 233 229 223 222 222 223 221 215
14 21 359 7 350 344 351 356 2 6 353 343 341 322 20 65 299 307 331 345 335 325 343 320 316 319 315 304 258 232 231 240 233 233 217 223 218 213 208 215 218 214 209
13 21 21 14 6 356 356 351 3 14 339 353 355 110 41 2 314 341 330 340 323 326 332 338 329 331 327 331 264 247 260 259 241 244 216 207 202 195 191 198 205 208 204
15 17 24 27 11 6 353 360 12 23 9 5 36 76 84 324 333 355 3 320 327 328 326 332 337 335 343 334 338 338 311 270 250 240 113 190 172 174 175 183 187 194 200
11 11 11 21 9 10 2 10 18 23 24 27 25 35 5 353 5 24 7 357 346 331 329 330 338 336 343 358 332 359 346 320 249 259 287 228 184 180 170 181 186 189 196
359 2 2 9 3 11 11 25 26 20 22 26 46 29 355 336 340 332 352 1 350 345 321 323 323 330 338 351 332 293 2 18 39 333 246 249 147 164 166 166 188 205 203
343 351 352 359 11 11 19 19 23 18 20 14 29 33 355 349 346 330 342 352 343 344 346 311 320 319 319 325 312 307 358 317 304 21 15 286 222 134 183 194 177 207 227
332 342 344 353 16 20 16 12 17 19 15 19 17 15 1 342 354 347 336 348 354 356 332 332 340 320 300 288 280 308 314 295 309 296 289 298 302 288 237 263 229 209 232
337 334 337 353 10 21 15 5 8 13 11 2 4 2 358 343 341 348 342 344 345 357 7 353 340 337 313 295 295 261 282 285 281 273 262 263 258 260 253 253 255 249 241
331 323 337 349 1 6 353 350 355 2 358 6 9 3 7 1 331 321 336 341 338 352 357 351 340 323 306 290 303 291 299 299 281 267 267 258 248 253 252 251 254 253 250
302 321 330 342 349 344 338 355 357 354 347 346 358 356 358 359 8 6 348 333 335 346 355 10 349 328 313 303 299 299 315 308 292 284 279 274 264 260 259 257 252 251 255
300 300 308 318 341 338 327 332 345 346 339 338 342 331 340 345 347 339 340 326 332 330 331 334 345 341 307 292 285 289 302 303 287 276 271 279 287 284 283 267 257 255 253
332 312 324 314 315 336 323 321 327 334 333 331 331 324 328 330 343 342 336 352 333 315 316 319 312 314 316 300 293 291 297 294 292 294 280 277 291 294 285 280 273 267 268
317 311 308 315 313 304 305 307 318 322 324 322 326 327 317 308 314 324 329 313 321 319 316 325 341 311 295 309 305 299 306 304 301 309 292 283 287 298 306 295 289 282 278
310 305 311 308 311 304 306 293 293 299 302 313 309 310 312 310 294 299 308 317 305 300 311 312 318 325 311 298 300 299 295 300 301 298 302 291 294 300 304 302 311 310 297
305 302 302 303 304 301 299 299 302 306 306 299 305 312 305 303 296 283 285 294 307 300 303 294 305 321 304 317 299 297 297 292 295 312 307 302 307 288 303 300 302 307 303
306 307 301 299 300 300 299 300 301 297 300 301 304 311 313 299 290 286 276 288 293 293 296 295 289 290 320 309 323 316 301 282 291 292 290 292 289 292 288 289 305 298 295
311 310 309 308 304 300 296 296 294 292 292 293 298 304 309 305 283 277 280 276 280 285 286 291 293 276 277 296 297 310 301 301 301 300 292 291 290 292 296 299 307 304 297
315 315 315 312 310 306 302 296 290 290 290 290 294 297 301 306 283 280 267 275 276 273 277 281 288 285 279 279 285 282 288 302 312 331 319 291 283 285 293 289 305 306 298
315 315 314 312 311 311 311 308 303 300 299 296 296 295 296 300 290 285 286 276 272 271 275 283 282 282 283 270 274 270 278 287 298 311 310 312 293 276 283 292 302 299 303
311 314 315 317 316 318 320 317 310 304 307 302 302 304 301 301 294 287 281 277 273 271 278 281 284 294 279 276 261 269 275 286 297 302 309 301 298 296 290 295 300 297 310
310 314 319 322 320 324 325 322 315 307 308 305 295 312 298 293 280 287 288 276 275 279 283 281 286 283 291 292 269 259 263 277 289 300 283 285 285 301 304 304 303 317 316
314 320 324 325 322 323 327 328 328 325 320 328 332 316 320 304 291 284 290 286 280 286 284 279 285 283 280 285 271 255 258 266 271 288 288 266 291 304 310 312 316 325 318
Wind_Speed_850mb
25 22 26 36 23 24 26 30 36 23 21 18 21 25 26 30 24 36 27 23 30 32 31 30 33 31 33 40 41 39 38 42 43 43 39 36 40 39 36 34 31 31 31
21 21 27 26 25 26 30 40 42 23 12 16 20 23 23 24 26 25 27 25 24 28 33 35 34 33 33 37 38 38 39 36 37 42 43 42 42 43 39 36 34 30 29
20 21 28 24 25 29 39 37 32 11 12 14 16 15 12 22 16 19 14 21 27 35 39 37 31 26 24 32 37 45 40 46 52 43 44 43 43 43 42 38 36 34 29
25 17 26 28 20 28 38 45 38 19 12 24 25 15 11 19 0 4 21 26 27 40 34 27 24 27 27 29 31 39 50 50 44 38 38 40 42 44 46 42 36 33 31
32 23 20 30 17 25 37 52 36 20 22 29 33 10 12 5 13 17 21 21 29 37 32 24 25 27 29 28 34 27 24 38 53 56 42 39 40 41 40 39 39 35 32
33 33 29 34 14 32 42 56 35 13 25 34 30 12 11 4 16 20 17 16 27 37 36 28 28 26 25 27 22 48 50 59 37 35 57 44 41 34 32 32 33 35 34
36 37 33 31 19 34 45 45 36 33 29 31 28 16 11 5 16 22 26 20 22 28 30 28 25 24 21 19 15 15 20 29 51 9 10 56 42 33 29 27 27 28 33
39 43 39 32 29 32 47 44 39 37 35 33 38 26 21 9 24 27 30 34 36 29 26 24 23 25 17 14 2 8 12 11 25 35 42 13 55 48 34 25 25 26 29
33 39 43 28 30 32 42 45 46 41 40 37 27 26 15 16 50 23 36 32 33 35 24 23 19 19 16 12 5 6 10 13 12 6 18 19 24 39 34 28 17 20 24
25 32 42 29 30 30 35 36 45 37 32 33 33 18 18 25 29 35 46 34 29 34 22 20 20 22 17 10 8 8 7 13 12 7 8 5 10 14 10 23 21 16 19
18 28 39 29 26 34 28 32 37 47 34 27 29 26 18 22 28 35 47 51 36 25 20 16 16 17 15 11 7 9 11 15 16 9 13 10 6 8 11 16 18 17 22
19 29 37 26 23 24 28 28 26 33 38 30 28 27 27 27 29 36 42 44 44 36 18 16 16 13 9 5 7 9 12 15 17 21 23 21 22 23 26 26 26 26 30
17 31 33 31 22 19 25 22 21 25 32 33 36 30 30 23 23 29 35 42 44 35 28 16 16 16 12 11 9 13 15 22 18 20 21 22 23 28 27 27 30 30 30
12 21 30 29 27 16 21 27 28 21 28 29 29 31 32 24 24 19 28 34 42 36 31 19 23 14 18 14 13 19 24 19 17 17 10 11 15 17 22 25 30 32 31
18 21 19 25 29 20 20 24 26 27 27 27 26 26 29 32 23 19 25 21 22 30 36 24 23 21 17 19 18 22 25 23 19 16 12 12 13 13 15 17 25 29 31
25 17 17 20 24 21 25 26 27 26 27 32 28 26 30 33 29 24 22 20 19 22 24 33 25 20 15 17 23 25 24 20 18 18 20 22 22 22 23 25 25 27 31
26 23 20 19 22 25 23 28 28 28 30 33 32 29 32 32 33 29 27 20 18 19 26 25 24 24 24 22 20 19 22 21 15 17 15 17 13 15 16 18 22 25 24
30 26 27 25 23 25 28 31 35 35 34 36 37 38 44 35 37 33 32 26 24 23 25 31 29 25 28 27 26 24 22 16 17 18 17 14 20 20 21 18 19 18 22
32 24 27 29 29 30 28 29 34 38 40 43 44 51 49 44 39 38 40 35 32 30 23 29 28 24 27 25 25 26 26 25 18 16 21 17 21 19 17 20 23 25 22
31 27 28 31 34 36 37 38 41 41 41 46 52 53 48 45 41 37 38 36 39 37 30 29 30 26 22 21 25 18 21 18 22 23 26 31 27 26 26 28 31 32 33
31 30 33 36 41 45 45 43 43 45 48 52 53 56 56 49 41 41 42 43 42 41 34 29 27 27 29 30 21 23 26 26 27 28 28 22 24 27 28 32 36 37 40
39 40 43 45 49 51 51 50 49 52 54 59 62 61 58 50 39 39 40 41 39 39 37 35 30 28 28 30 29 29 30 34 32 23 29 28 28 33 32 30 38 41 46
46 49 53 57 61 65 63 60 57 56 59 63 66 70 63 52 42 42 37 41 42 40 39 36 39 35 30 24 23 30 29 31 36 34 34 34 20 27 29 35 41 39 50
52 57 61 66 72 75 75 74 70 65 62 77 76 75 68 55 45 45 42 37 38 35 34 36 38 34 32 29 28 28 31 38 40 37 25 33 22 20 27 35 36 42 58
57 61 64 73 77 75 74 75 81 72 65 72 72 63 61 55 45 52 57 49 35 36 33 36 38 35 34 31 34 34 37 38 42 35 21 22 23 28 31 36 29 44 46
68 67 64 60 85 62 62 63 64 65 66 63 54 43 50 22 26 35 44 40 41 40 29 34 37 40 43 40 36 39 35 37 40 40 15 22 29 32 32 24 29 43 38
Wind_Direction_850mb
48 35 16 -0 43 11 2 340 334 339 355 360 353 338 336 338 336 339 344 333 324 308 312 313 296 285 264 259 254 244 249 254 256 252 244 238 238 234 232 233 232 230 229
41 35 16 19 21 348 352 338 331 309 337 348 359 333 316 337 327 353 335 329 331 315 319 320 302 292 280 264 249 239 234 241 251 250 243 237 236 233 231 230 230 227 225
46 24 12 17 16 350 344 347 352 311 268 323 332 334 317 328 315 330 325 333 322 319 314 311 314 316 302 282 263 250 248 239 242 250 244 238 234 232 228 230 229 224 218
28 14 9 12 4 352 343 349 354 1 347 338 329 308 351 40 157 17 329 337 344 339 328 311 314 317 319 292 273 259 249 236 231 227 238 233 229 223 222 222 223 221 215
14 21 359 7 350 344 351 356 2 6 353 343 341 322 20 65 299 307 331 345 335 325 343 320 316 319 315 304 258 232 231 240 233 233 217 223 218 213 208 215 218 214 209
13 21 21 14 6 356 356 351 3 14 339 353 355 110 41 2 314 341 330 340 323 326 332 338 329 331 327 331 264 247 260 259 241 244 216 207 202 195 191 198 205 208 204
15 17 24 27 11 6 353 360 12 23 9 5 36 76 84 324 333 355 3 320 327 328 326 332 337 335 343 334 338 338 311 270 250 240 113 190 172 174 175 183 187 194 200
11 11 11 21 9 10 2 10 18 23 24 27 25 35 5 353 5 24 7 357 346 331 329 330 338 336 343 358 332 359 346 320 249 259 287 228 184 180 170 181 186 189 196
359 2 2 9 3 11 11 25 26 20 22 26 46 29 355 336 340 332 352 1 350 345 321 323 323 330 338 351 332 293 2 18 39 333 246 249 147 164 166 166 188 205 203
343 351 352 359 11 11 19 19 23 18 20 14 29 33 355 349 346 330 342 352 343 344 346 311 320 319 319 325 312 307 358 317 304 21 15 286 222 134 183 194 177 207 227
332 342 344 353 16 20 16 12 17 19 15 19 17 15 1 342 354 347 336 348 354 356 332 332 340 320 300 288 280 308 314 295 309 296 289 298 302 288 237 263 229 209 232
337 334 337 353 10 21 15 5 8 13 11 2 4 2 358 343 341 348 342 344 345 357 7 353 340 337 313 295 295 261 282 285 281 273 262 263 258 260 253 253 255 249 241
331 323 337 349 1 6 353 350 355 2 358 6 9 3 7 1 331 321 336 341 338 352 357 351 340 323 306 290 303 291 299 299 281 267 267 258 248 253 252 251 254 253 250
302 321 330 342 349 344 338 355 357 354 347 346 358 356 358 359 8 6 348 333 335 346 355 10 349 328 313 303 299 299 315 308 292 284 279 274 264 260 259 257 252 251 255
300 300 308 318 341 338 327 332 345 346 339 338 342 331 340 345 347 339 340 326 332 330 331 334 345 341 307 292 285 289 302 303 287 276 271 279 287 284 283 267 257 255 253
332 312 324 314 315 336 323 321 327 334 333 331 331 324 328 330 343 342 336 352 333 315 316 319 312 314 316 300 293 291 297 294 292 294 280 277 291 294 285 280 273 267 268
317 311 308 315 313 304 305 307 318 322 324 322 326 327 317 308 314 324 329 313 321 319 316 325 341 311 295 309 305 299 306 304 301 309 292 283 287 298 306 295 289 282 278
310 305 311 308 311 304 306 293 293 299 302 313 309 310 312 310 294 299 308 317 305 300 311 312 318 325 311 298 300 299 295 300 301 298 302 291 294 300 304 302 311 310 297
305 302 302 303 304 301 299 299 302 306 306 299 305 312 305 303 296 283 285 294 307 300 303 294 305 321 304 317 299 297 297 292 295 312 307 302 307 288 303 300 302 307 303
306 307 301 299 300 300 299 300 301 297 300 301 304 311 313 299 290 286 276 288 293 293 296 295 289 290 320 309 323 316 301 282 291 292 290 292 289 292 288 289 305 298 295
311 310 309 308 304 300 296 296 294 292 292 293 298 304 309 305 283 277 280 276 280 285 286 291 293 276 277 296 297 310 301 301 301 300 292 291 290 292 296 299 307 304 297
315 315 315 312 310 306 302 296 290 290 290 290 294 297 301 306 283 280 267 275 276 273 277 281 288 285 279 279 285 282 288 302 312 331 319 291 283 285 293 289 305 306 298
315 315 314 312 311 311 311 308 303 300 299 296 296 295 296 300 290 285 286 276 272 271 275 283 282 282 283 270 274 270 278 287 298 311 310 312 293 276 283 292 302 299 303
311 314 315 317 316 318 320 317 310 304 307 302 302 304 301 301 294 287 281 277 273 271 278 281 284 294 279 276 261 269 275 286 297 302 309 301 298 296 290 295 300 297 310
310 314 319 322 320 324 325 322 315 307 308 305 295 312 298 293 280 287 288 276 275 279 283 281 286 283 291 292 269 259 263 277 289 300 283 285 285 301 304 304 303 317 316
314 320 324 325 322 323 327 328 328 325 320 328 332 316 320 304 291 284 290 286 280 286 284 279 285 283 280 285 271 255 258 266 271 288 288 266 291 304 310 312 316 325 318